{"data":{"norad_id":48283,"intl_designator":"2021-036H","name":"STARLINK-2516","alt_names":[],"object_type":"PAYLOAD","status":"ACTIVE","operator":null,"country":"US","launch_date":"2021-04-29","launch_site_code":"AFETR","launch_vehicle":null,"mission":null,"orbit_class":"UNKNOWN","rcs_meters":null,"size_class":null,"mass_kg":null,"dimensions":null,"purposes":["comms"],"wikipedia_slug":null,"has_3d_model":false,"image_url":null,"decayed_at":null,"tle_current":{"epoch":"2026-09-20T04:08:12.067296Z","epoch_age_seconds":62071,"freshness":"FRESH","line1":"1 48283U 21036H   26263.17236189  .00001343  00000+0  55028-4 0  9997","line2":"2 48283  53.1582 250.2821 0001200  85.7532 274.3607 15.31707904298212","mean_motion":15.31707904,"eccentricity":0.00012,"inclination_deg":53.1582,"raan_deg":250.2821,"arg_perigee_deg":85.7532,"mean_anomaly_deg":274.3607,"bstar":5.5028e-5,"rev_number":29821,"period_min":94.012702829273,"perigee_km":469.89457150219,"apogee_km":471.53829632633,"semimajor_km":6848.8534339143,"source":"CELESTRAK","updated_at":"2026-09-20T09:00:38.928525Z"}}}